Location: Angwan Shehu
(11.2514°N, 7.4613°E)
Time: 16:24:41
(UTC+00:00)

N. Korean satellite - Visible Passes

Search period start: 23 June 2021 00:00
Search period end: 03 July 2021 00:00
Orbit: 450 x 499 km, 97.2° (Epoch: 22 June)

Date Brightness Start Highest point End Pass type
(mag) Time Alt. Az. Time Alt. Az. Time Alt. Az.
24 Jun 7.2 04:23:10 10° NNE 04:26:47 58° E 04:30:23 10° S visible
25 Jun 9.1 03:56:43 10° NE 03:59:31 21° E 04:02:18 10° SSE visible
27 Jun 6.6 04:34:25 10° N 04:38:05 87° W 04:41:45 10° SSW visible
28 Jun 8.4 04:07:32 10° NE 04:10:49 31° E 04:14:05 10° SSE visible
29 Jun 9.7 03:42:09 10° ENE 03:43:31 12° E 03:44:53 10° ESE visible
30 Jun 6.8 04:45:46 10° N 04:49:20 54° WNW 04:52:55 10° SSW visible
01 Jul 7.6 04:18:32 10° NNE 04:22:05 48° E 04:25:37 10° S visible
02 Jul 9.4 03:52:15 10° NE 03:54:46 18° E 03:57:17 10° SE visible
